Home > Weather > Brantford > Past weeks

Flag for Canada Past Weather in Brantford, Ontario, Canada — Yesterday and Last 2 Weeks

Now
84 °F

Passing clouds.


Feels Like: 82 °F
Forecast: N/A
Wind: 5 mph from North

Location: Hamilton Airport

Current Time: Jun 25, 2016 at 7:09:18 PM

Latest Report: Jun 25, 2016 at 6:00 PM


Visibility: 15 mi

Pressure: 30.13 "Hg

Humidity: 33%

Dew Point: 52 °F

Location of BrantfordLocation

Past Weather in Brantford — Graph

°F

Brantford Temperature Yesterday

Maximum temperature yesterday: 79 °F (at 2:00 PM)
Minimum temperature yesterday: 55 °F (at 3:00 AM)
Average temperature yesterday: 68 °F

High & Low Weather Summary for the Past Weeks

 TemperatureHumidityPressure
High88 °F (Jun 11, 5:00 PM)100% (Jun 15, 9:00 PM)30.30 "Hg (Jun 15, 9:00 PM)
Low48 °F (Jun 13, 5:00 AM)16% (Jun 14, 6:00 PM)29.72 "Hg (Jun 16, 1:00 PM)
Average68 °F57%29.98 "Hg
* Reported Jun 10 6:00 PM — Jun 25 6:00 PM, Brantford, Weather by CustomWeather, © 2016

Note: Actual official high and low records may vary slightly from our data, if they occured in-between our weather recording intervals... More about our weather records

Advertising

Brantford Weather History for the Previous 24 Hours

Scroll right to see more
 ConditionsComfort  
Time TempWeatherWind HumidityBarometerVisibility
6:00 PM
Sat, Jun 25
84 °FPassing clouds.5 mph33%30.13 "Hg15 mi
5:00 PM84 °FPassing clouds.6 mph33%30.13 "Hg15 mi
4:00 PM84 °FPassing clouds.7 mph33%30.14 "Hg15 mi
3:00 PM82 °FPassing clouds.9 mph35%30.15 "Hg15 mi
2:00 PM82 °FPassing clouds.7 mph37%30.17 "Hg15 mi
1:00 PM82 °FPassing clouds.2 mph35%30.17 "Hg15 mi
12:00 PM81 °FSunny.5 mph34%30.17 "Hg15 mi
11:00 AM79 °FSunny.5 mph45%30.17 "Hg15 mi
10:00 AM77 °FPassing clouds.5 mph47%30.19 "Hg15 mi
9:00 AM73 °FPassing clouds.3 mph50%30.18 "Hg15 mi
8:00 AM68 °FPassing clouds.5 mph60%30.16 "Hg15 mi
7:00 AM63 °FPassing clouds.5 mph73%30.15 "Hg15 mi
6:00 AM61 °FPassing clouds.2 mph63%30.15 "Hg15 mi
5:00 AM61 °FPassing clouds.6 mph68%30.13 "Hg15 mi
4:00 AM59 °FClear.3 mph72%30.13 "Hg15 mi
3:00 AM61 °FClear.3 mph68%30.13 "Hg15 mi
2:00 AM61 °FClear.3 mph72%30.14 "Hg15 mi
1:00 AM59 °FPassing clouds.8 mph82%30.13 "Hg15 mi
12:00 AM63 °FClear.3 mph68%30.11 "Hg15 mi
11:00 PM
Fri, Jun 24
64 °FClear.3 mph60%30.11 "Hg15 mi
10:00 PM66 °FSunny.5 mph56%30.10 "Hg15 mi
9:00 PM68 °FPassing clouds.7 mph49%30.08 "Hg15 mi
8:00 PM73 °FSunny.6 mph41%30.08 "Hg15 mi
7:00 PM77 °FSunny.9 mph36%30.08 "Hg15 mi
Weather by CustomWeather, © 2016

See weather overviewHow to use our weather pages